ONEWEB-0141

Last updated on Mon Jan 18 2021 00:02:03 GMT+0000 (Coordinated Universal Time)

1 47287U 20100AF 21017.58334491 -.01480568 00000-0 -10968+0 0 9996 2 47287 87.3890 29.1080 0012766 148.5901 31.5020 15.06495876 1873

Satellite not in orbit